Weather observations for the past three days for
Wichita Jabara Airport
Imperial (Metric)
Date Time (cdt) Wind (mph) Vis. (mi.) Weather Sky Cond. Temperature (ºF) Relative Humidity Wind Chill (°F) Heat Index (°F) Pressure Precipitation (in)
Air Dwpt 6 hour altimeter (in) sea level (mb) 1 hr 3 hr 6 hr
Max. Min.
22 12:54 NE 8 10.00 A Few Clouds FEW050 FEW060 81 59 84 61 47% 81 30.09 1017.7
22 11:54 Vrbl 6 10.00 Fair CLR 81 60.1 49% 82 30.1 1018.1
22 10:54 Vrbl 3 10.00 Fair CLR 79 60.1 52% 80 30.11 1018.4
22 09:54 Vrbl 3 10.00 Fair CLR 75.9 60.1 58% 78 30.12 1018.8
22 08:54 Calm 10.00 Fair CLR 72 63 73% 30.13 1019.2
22 07:54 E 3 10.00 Fair CLR 64.9 62.1 90% 30.11 1018.7
22 06:54 Calm 9.00 Fair CLR 61 60.1 66 59 97% 30.09 1018.0
22 05:54 N 5 10.00 Fair CLR 61 59 93% 30.08 1017.5
22 04:54 Calm 10.00 Fair CLR 61 57.9 90% 30.08 1017.4
22 03:54 NE 5 10.00 Fair CLR 61 59 93% 30.08 1017.4
22 02:54 Calm 10.00 Fair CLR 64.9 60.1 84% 30.09 1017.6
22 01:54 Calm 10.00 Fair CLR 66 60.1 81% 30.11 1018.3
22 00:54 E 3 10.00 Fair CLR 64.9 59 82 64.9 81% 30.12 1018.8
21 23:54 Calm 10.00 Fair CLR 69.1 60.1 73% 30.12 1018.9
21 22:54 E 3 10.00 Fair CLR 68 59 73% 30.12 1018.7
21 21:54 E 5 10.00 Fair CLR 71.1 59 66% 30.1 1018.1
21 20:54 E 5 10.00 Fair CLR 73.9 60.1 62% 30.08 1017.4
21 19:54 NE 8 10.00 Fair CLR 79 59 50% 80 30.07 1017.1
21 18:54 E 8 10.00 Partly Cloudy SCT050 82 59 84.9 80.1 46% 82 30.06 1016.6
21 17:54 NE 9 10.00 Fair CLR 82.9 59 44% 83 30.05 1016.5
21 16:54 NE 13 10.00 Partly Cloudy SCT100 84 61 46% 84 30.07 1017.1
21 15:54 NE 12 G 21 10.00 A Few Clouds FEW060 FEW100 84 61 46% 84 30.08 1017.6
21 14:54 NE 10 G 20 10.00 Partly Cloudy FEW047 SCT095 84 61 46% 84 30.09 1017.9
21 13:54 NE 13 G 20 10.00 Partly Cloudy FEW043 SCT055 84 61 46% 84 30.11 1018.4
21 12:54 NE 10 G 20 10.00 A Few Clouds FEW048 82.9 63 82.9 66 51% 84 30.12 1018.7
21 11:54 NE 14 10.00 Mostly Cloudy BKN034 BKN042 BKN049 80.1 63 56% 81 30.13 1019.0
21 10:54 NE 10 G 18 10.00 A Few Clouds FEW024 77 63 62% 79 30.13 1019.2
21 09:54 NE 10 10.00 A Few Clouds FEW020 73.9 63 69% 30.13 1019.3
21 08:54 NE 7 10.00 Mostly Cloudy BKN050 71.1 63 76% 30.13 1019.3
21 07:54 E 12 10.00 Overcast BKN035 OVC041 68 62.1 81% 30.13 1019.2
21 06:54 NE 8 10.00 Overcast FEW028 BKN035 OVC070 66 62.1 68 64.9 87% 30.12 1018.7
21 05:54 NE 6 10.00 Overcast OVC040 64.9 62.1 90% 30.1 1018.3
21 04:54 E 6 10.00 Mostly Cloudy BKN040 64.9 62.1 90% 30.08 1017.6
21 03:54 E 6 10.00 Mostly Cloudy BKN040 66 63 90% 30.08 1017.3
21 02:54 NE 7 10.00 Overcast FEW009 OVC038 66 64 93% 30.09 1017.9
21 01:54 NE 7 10.00 A Few Clouds FEW009 FEW075 66 64 93% 30.1 1018.0
21 00:54 NE 8 10.00 Mostly Cloudy BKN050 68 64.9 80.1 66.9 90% 30.1 1018.1
20 23:54 NE 7 10.00 Partly Cloudy FEW009 SCT046 68 64.9 90% 30.1 1018.0
20 22:54 NE 8 10.00 Mostly Cloudy FEW011 BKN060 69.1 64.9 87% 30.1 1018.3
20 21:54 NE 12 10.00 Fair CLR 70 64.9 84% 30.09 1018.1
20 20:54 NE 13 10.00 Mostly Cloudy BKN037 BKN085 72 66 82% 30.06 1017.2
20 19:54 NE 10 10.00 Partly Cloudy FEW048 FEW065 SCT085 77 63 62% 79 30.05 1016.4
20 18:54 E 13 10.00 Mostly Cloudy SCT041 BKN050 BKN075 80.1 62.1 84.9 78.1 54% 81 30.03 1015.7
20 17:54 E 12 10.00 Overcast BKN039 BKN048 OVC060 78.1 64.9 64% 80 30.03 1015.6
20 16:54 E 15 10.00 Mostly Cloudy BKN060 81 66 61% 83 30.03 1015.5
20 15:54 SE 8 10.00 Overcast BKN041 OVC050 84.9 66 53% 87 30.03 1015.6
20 14:54 SE 7 10.00 Partly Cloudy FEW035 FEW060 SCT095 82 66 58% 84 30.05 1016.2
20 13:54 SW 7 10.00 A Few Clouds FEW033 82 66 58% 84 30.06 1016.6
20 12:54 Calm 10.00 Partly Cloudy SCT033 80.1 64.9 80.1 64.9 60% 82 30.06 1016.7 0.01
20 11:54 S 7 10.00 Fair CLR 77 64 64% 79 30.07 1016.9
20 10:54 S 8 10.00 Fair CLR 73.9 64.9 74% 30.07 1017.1
20 09:54 S 6 10.00 Overcast BKN047 OVC055 70 63 79% 30.08 1017.3 0.01
20 08:54 SE 6 10.00 A Few Clouds FEW100 66.9 64 91% 30.08 1017.4 0.01
20 07:54 E 7 10.00 Light Rain BKN110 66 63 90% 30.08 1017.5
20 06:54 SW 6 9.00 Light Rain BKN075 BKN090 OVC110 66.9 62.1 72 66.9 84% 30.08 1017.3 0.05 0.05
20 05:54 S 8 10.00 A Few Clouds FEW085 69.1 59 70% 30.04 1015.8
20 04:54 S 7 10.00 Partly Cloudy SCT080 SCT100 69.1 59 70% 30.04 1015.7
20 03:54 SE 9 10.00 Partly Cloudy SCT085 69.1 59 70% 30.03 1015.5
20 02:54 SE 9 10.00 Partly Cloudy FEW090 SCT110 70 57.9 66% 30.04 1015.9
20 01:54 SE 6 10.00 Mostly Cloudy BKN090 71.1 57.9 63% 30.06 1016.7
20 00:54 SE 9 10.00 Fair CLR 72 59 86 72 64% 30.03 1015.6
19 23:54 SE 6 10.00 Fair CLR 73 59 62% 30.06 1016.5
19 22:54 SE 9 10.00 Fair CLR 73.9 59 60% 30.06 1016.5
19 21:54 SE 12 10.00 Fair CLR 77 60.1 56% 79 30.05 1016.4
19 20:54 SE 7 10.00 Fair CLR 79 61 54% 80 30.04 1016.1
19 19:54 S 7 10.00 Fair CLR 82 61 49% 83 30.04 1016.2
19 18:54 Vrbl 6 10.00 Fair CLR 86 59 88 80.1 40% 85 30.04 1016.1
19 17:54 SE 5 G 16 10.00 Fair CLR 87.1 60.1 40% 87 30.03 1015.8
19 16:54 E 5 10.00 Fair CLR 87.1 59 39% 86 30.06 1016.7
19 15:54 SE 7 10.00 Fair CLR 87.1 60.1 40% 87 30.08 1017.3
19 14:54 Calm 10.00 Fair CLR 84.9 59 42% 85 30.09 1017.6
19 13:54 SW 6 10.00 Fair CLR 82.9 57.9 43% 83 30.12 1018.8
Date Time (cdt) Wind (mph) Vis. (mi.) Weather Sky Cond. Air Dwpt Max. Min. Relative Humidity Wind Chill (°F) Heat Index (°F) altimeter (in) sea level (mb) 1 hr 3 hr 6 hr
6 hour
Temperature (ºF) Pressure Precipitation (in)